Date String (YYYY-MM-DD hh:mm:ss) UTC,Instrument flags,absolute air pressure of the measurement (hPa),sample flow rate (lpm),inlet stack bypass flow (lpm),air temperature of the measurement (°C),ambient temperature measured by the external sensor (°C),aerosol sample conditioner tube jacket temperature (°C),OPC LED temperature (°C),internal box temperature (°C),relative humidity of the measurement (%),span deviation,mass concentration of particles derived from Lorenz-Mie calculation of OPC scattering (μg/m³),mass concentration of particles derived from Lorenz-Mie calculation of OPC scattering (μg/m³),mass concentration of particles derived from Lorenz-Mie calculation of OPC scattering (μg/m³)
DateTimeUTC,F1_M11,P_M11,Q1_M11,Q2_M11,T1_M11,T2_M11,T3_M11,T4_M11,T5_M11,U1_M11,ZSPAN_M11,X0_M11,X2_M11,X1_M11
2023-07-30 08:00:00,SystemResetWarning,0836.4,5.01,000.00,030.2,028.3,000.0,038.6,031.4,31.2,0000.0,0016.19,0006.92,0005.40
2023-07-30 08:01:00,SystemResetWarning,0836.4,5.01,000.00,030.2,028.2,000.0,038.6,031.4,31.5,0000.0,0015.87,0006.86,0005.37
2023-07-30 08:02:00,SystemResetWarning,0836.4,4.98,000.00,030.2,026.7,000.0,038.5,031.3,31.7,0000.0,0015.45,0006.83,0005.34
2023-07-30 08:03:00,SystemResetWarning,0836.4,5.02,000.00,030.1,025.6,000.0,038.4,031.1,32.6,0000.0,0015.22,0006.79,0005.29
2023-07-30 08:04:00,SystemResetWarning,0836.4,5.01,000.00,030.0,025.5,000.0,038.4,030.8,33.0,0000.0,0015.07,0006.71,0005.27
2023-07-30 08:05:00,SystemResetWarning,0836.4,5.00,000.00,029.9,025.8,000.0,038.4,030.8,33.0,0000.0,0014.71,0006.70,0005.25
2023-07-30 08:06:00,SystemResetWarning,0836.4,5.00,000.00,029.8,026.2,000.0,038.4,030.8,32.8,0000.0,0015.46,0006.70,0005.23
2023-07-30 08:07:00,SystemResetWarning,0836.4,5.00,000.00,029.8,026.6,000.0,038.4,030.9,32.8,0000.0,0015.59,0006.67,0005.20
2023-07-30 08:08:00,SystemResetWarning,0836.4,5.00,000.00,029.8,026.9,000.0,038.3,030.9,32.5,0000.0,0015.73,0006.62,0005.19
2023-07-30 08:09:00,SystemResetWarning,0836.4,4.99,000.00,029.8,027.2,000.0,038.3,031.0,32.3,0000.0,0015.85,0006.56,0005.17
2023-07-30 08:10:00,SystemResetWarning,0836.4,5.00,000.00,029.8,027.4,000.0,038.3,031.0,32.0,0000.0,0015.44,0006.45,0005.16
2023-07-30 08:11:00,SystemResetWarning,0836.4,5.00,000.00,029.8,027.6,000.0,038.3,031.1,31.8,0000.0,0014.73,0006.34,0005.14
2023-07-30 08:12:00,SystemResetWarning,0836.3,5.00,000.00,029.8,027.8,000.0,038.3,031.1,31.5,0000.0,0014.87,0006.31,0005.13
2023-07-30 08:13:00,SystemResetWarning,0836.4,5.00,000.00,029.8,027.9,000.0,038.3,031.1,31.5,0000.0,0014.54,0006.27,0005.10
2023-07-30 08:14:00,SystemResetWarning,0836.4,5.00,000.00,029.8,028.0,000.0,038.3,031.2,31.4,0000.0,0014.66,0006.23,0005.11
2023-07-30 08:15:00,SystemResetWarning,0836.4,5.00,000.00,029.8,028.1,000.0,038.3,031.2,31.0,0000.0,0014.96,0006.16,0005.10
2023-07-30 08:16:00,SystemResetWarning,0836.4,5.00,000.00,029.8,028.2,000.0,038.3,031.2,30.7,0000.0,0015.28,0006.10,0005.08
2023-07-30 08:17:00,SystemResetWarning,0836.3,4.99,000.00,029.9,028.3,000.0,038.3,031.3,30.7,0000.0,0014.44,0006.05,0005.06
2023-07-30 08:18:00,SystemResetWarning,0836.3,5.00,000.00,029.9,028.3,000.0,038.3,031.3,30.7,0000.0,0013.97,0006.08,0005.05
2023-07-30 08:19:00,SystemResetWarning,0836.3,5.01,000.00,029.9,028.3,000.0,038.3,031.3,30.7,0000.0,0014.56,0006.11,0005.04
2023-07-30 08:20:00,SystemResetWarning,0836.3,4.99,000.00,029.9,026.9,000.0,038.2,031.2,30.8,0000.0,0015.11,0006.15,0005.05
2023-07-30 08:21:00,SystemResetWarning,0836.2,5.01,000.00,029.8,025.6,000.0,038.1,030.9,30.9,0000.0,0016.26,0006.26,0005.08
2023-07-30 08:22:00,SystemResetWarning,0836.2,5.01,000.00,029.7,025.4,000.0,038.0,030.7,31.0,0000.0,0016.02,0006.28,0005.10
2023-07-30 08:23:00,SystemResetWarning,0836.2,5.00,000.00,029.6,025.7,000.0,038.1,030.6,31.0,0000.0,0015.70,0006.29,0005.10
2023-07-30 08:24:00,SystemResetWarning,0836.2,5.00,000.00,029.5,026.1,000.0,038.1,030.7,31.2,0000.0,0015.87,0006.31,0005.10
2023-07-30 08:25:00,SystemResetWarning,0836.2,5.01,000.00,029.5,026.5,000.0,038.1,030.7,31.2,0000.0,0015.74,0006.33,0005.11
2023-07-30 08:26:00,SystemResetWarning,0836.2,4.99,000.00,029.5,026.8,000.0,038.0,030.8,31.3,0000.0,0015.43,0006.39,0005.11
2023-07-30 08:27:00,SystemResetWarning,0836.1,4.99,000.00,029.5,027.1,000.0,038.0,030.8,31.3,0000.0,0014.75,0006.42,0005.13
2023-07-30 08:28:00,SystemResetWarning,0836.1,5.01,000.00,029.5,027.3,000.0,038.0,030.9,31.1,0000.0,0014.41,0006.38,0005.12
2023-07-30 08:29:00,SystemResetWarning,0836.1,5.02,000.00,029.5,027.5,000.0,038.0,030.9,31.1,0000.0,0014.69,0006.33,0005.11
2023-07-30 08:30:00,SystemResetWarning,0836.1,5.00,000.00,029.5,027.7,000.0,038.0,031.0,31.2,0000.0,0014.86,0006.29,0005.09
2023-07-30 08:31:00,SystemResetWarning,0836.1,5.00,000.00,029.5,027.8,000.0,038.0,031.0,31.5,0000.0,0014.48,0006.25,0005.07
2023-07-30 08:32:00,SystemResetWarning,0836.1,5.00,000.00,029.6,028.0,000.0,038.0,031.0,31.4,0000.0,0013.63,0006.07,0005.02
2023-07-30 08:33:00,SystemResetWarning,0836.1,5.00,000.00,029.6,028.1,000.0,038.0,031.1,31.9,0000.0,0013.53,0005.99,0004.98
2023-07-30 08:34:00,SystemResetWarning,0836.0,5.00,000.00,029.6,028.1,000.0,038.0,031.1,32.0,0000.0,0013.88,0005.94,0004.95
2023-07-30 08:35:00,SystemResetWarning,0836.0,5.00,000.00,029.6,028.2,000.0,038.0,031.1,31.4,0000.0,0014.10,0005.93,0004.93
2023-07-30 08:36:00,SystemResetWarning,0835.9,5.00,000.00,029.7,028.3,000.0,038.1,031.2,30.9,0000.0,0014.10,0005.95,0004.91
2023-07-30 08:37:00,SystemResetWarning,0835.9,5.00,000.00,029.7,028.3,000.0,038.1,031.2,30.6,0000.0,0014.05,0005.92,0004.88
2023-07-30 08:38:00,SystemResetWarning,0835.9,5.00,000.00,029.7,028.4,000.0,038.1,031.2,30.2,0000.0,0015.33,0005.87,0004.86
2023-07-30 08:39:00,SystemResetWarning,0835.9,4.99,000.00,029.7,027.2,000.0,038.0,031.2,30.1,0000.0,0015.78,0005.84,0004.84
2023-07-30 08:40:00,SystemResetWarning,0835.9,5.00,000.00,029.6,025.8,000.0,037.9,030.9,30.0,0000.0,0015.73,0005.86,0004.84
2023-07-30 08:41:00,SystemResetWarning,0835.8,5.01,000.00,029.6,025.4,000.0,037.8,030.6,30.2,0000.0,0014.66,0005.84,0004.82
2023-07-30 08:42:00,SystemResetWarning,0835.8,5.00,000.00,029.4,025.6,000.0,037.9,030.5,30.4,0000.0,0013.91,0005.82,0004.81
2023-07-30 08:43:00,SystemResetWarning,0835.8,4.98,000.00,029.4,025.9,000.0,037.9,030.6,30.4,0000.0,0013.87,0005.86,0004.81
2023-07-30 08:44:00,SystemResetWarning,0835.8,5.00,000.00,029.3,026.3,000.0,037.9,030.7,30.6,0000.0,0013.79,0005.88,0004.80
2023-07-30 08:45:00,SystemResetWarning,0835.8,5.00,000.00,029.3,026.7,000.0,037.9,030.7,31.0,0000.0,0013.37,0005.86,0004.80
2023-07-30 08:46:00,SystemResetWarning,0835.8,5.01,000.00,029.3,027.0,000.0,037.9,030.8,31.2,0000.0,0013.46,0005.86,0004.81
2023-07-30 08:47:00,SystemResetWarning,0835.8,5.01,000.00,029.3,027.2,000.0,037.9,030.8,31.2,0000.0,0013.56,0005.80,0004.80
2023-07-30 08:48:00,SystemResetWarning,0835.8,4.99,000.00,029.4,027.4,000.0,037.9,030.8,31.1,0000.0,0013.25,0005.79,0004.81
2023-07-30 08:49:00,SystemResetWarning,0835.8,4.99,000.00,029.4,027.6,000.0,037.9,030.9,31.3,0000.0,0012.01,0005.85,0004.82
2023-07-30 08:50:00,SystemResetWarning,0835.8,5.00,000.00,029.4,027.7,000.0,037.9,030.9,31.2,0000.0,0011.64,0005.90,0004.83
2023-07-30 08:51:00,SystemResetWarning,0835.8,5.00,000.00,029.4,027.9,000.0,037.9,031.0,30.8,0000.0,0011.64,0005.94,0004.83
2023-07-30 08:52:00,SystemResetWarning,0835.7,5.00,000.00,029.4,028.0,000.0,037.9,031.0,31.0,0000.0,0011.77,0005.97,0004.84
2023-07-30 08:53:00,SystemResetWarning,0835.7,5.00,000.00,029.5,028.1,000.0,037.9,031.0,30.8,0000.0,0012.26,0005.95,0004.84
2023-07-30 08:54:00,SystemResetWarning,0835.7,5.00,000.00,029.5,028.1,000.0,037.9,031.0,31.0,0000.0,0012.14,0005.93,0004.84
2023-07-30 08:55:00,SystemResetWarning,0835.6,5.01,000.00,029.5,028.2,000.0,037.9,031.1,31.2,0000.0,0013.57,0005.92,0004.83
2023-07-30 08:56:00,SystemResetWarning,0835.6,4.99,000.00,029.5,028.2,000.0,037.9,031.1,31.6,0000.0,0013.46,0005.90,0004.83
2023-07-30 08:57:00,SystemResetWarning,0835.6,4.99,000.00,029.6,028.3,000.0,038.0,031.1,31.7,0000.0,0012.96,0005.82,0004.81
2023-07-30 08:58:00,SystemResetWarning,0835.6,5.00,000.00,029.6,028.3,000.0,038.0,031.2,31.5,0000.0,0012.61,0005.79,0004.81
2023-07-30 08:59:00,SystemResetWarning,0835.6,5.00,000.00,029.6,028.3,000.0,038.0,031.2,32.9,0000.0,0012.68,0005.80,0004.80
